TimeEDT,TemperatureF,Dew PointF,Humidity,Sea Level PressureIn,VisibilityMPH,Wind Direction,Wind SpeedMPH,Gust SpeedMPH,PrecipitationIn,Events,Conditions,WindDirDegrees,DateUTC
12:17 AM,27.3,21.2,78,30.15,10.0,NW,6.9,-,N/A,,Clear,320,2013-03-27 04:17:00
12:37 AM,27.0,21.0,78,30.15,10.0,NW,6.9,-,N/A,,Clear,320,2013-03-27 04:37:00
12:56 AM,26.6,21.0,79,30.16,10.0,NW,5.8,-,N/A,,Clear,320,2013-03-27 04:56:00
1:17 AM,26.2,21.0,81,30.15,10.0,NW,6.9,-,N/A,,Clear,320,2013-03-27 05:17:00
1:37 AM,26.1,21.0,81,30.16,10.0,NW,4.6,-,N/A,,Clear,320,2013-03-27 05:37:00
1:56 AM,26.2,21.2,81,30.15,10.0,NW,6.9,-,N/A,,Clear,320,2013-03-27 05:56:00
2:17 AM,26.8,21.2,79,30.15,10.0,NW,8.1,-,N/A,,Clear,320,2013-03-27 06:17:00
2:37 AM,26.8,21.4,80,30.15,10.0,NW,9.2,-,N/A,,Clear,320,2013-03-27 06:37:00
2:56 AM,27.0,21.7,81,30.15,10.0,NW,9.2,-,N/A,,Clear,320,2013-03-27 06:56:00
3:17 AM,27.1,21.4,79,30.14,10.0,NW,10.4,-,N/A,,Clear,320,2013-03-27 07:17:00
3:36 AM,27.1,21.2,78,30.14,10.0,NW,10.4,-,N/A,,Clear,320,2013-03-27 07:36:00
3:57 AM,27.1,21.2,78,30.14,10.0,NW,9.2,-,N/A,,Clear,320,2013-03-27 07:57:00
4:16 AM,26.6,20.8,79,30.15,10.0,NW,9.2,-,N/A,,Clear,320,2013-03-27 08:16:00
4:37 AM,26.2,20.3,78,30.14,10.0,NW,8.1,-,N/A,,Clear,320,2013-03-27 08:37:00
4:57 AM,26.2,20.3,78,30.15,10.0,NW,8.1,-,N/A,,Clear,320,2013-03-27 08:57:00
5:16 AM,25.7,20.3,80,30.15,10.0,NW,6.9,-,N/A,,Clear,320,2013-03-27 09:16:00
5:37 AM,25.5,20.1,80,30.16,10.0,NW,8.1,-,N/A,,Clear,320,2013-03-27 09:37:00
5:57 AM,25.5,20.1,80,30.16,10.0,NW,10.4,-,N/A,,Clear,320,2013-03-27 09:57:00
6:50 AM,24.8,19.4,80,30.17,10.0,NW,10.4,-,N/A,,Clear,320,2013-03-27 10:50:00
7:50 AM,24.8,19.4,80,30.17,10.0,NNW,9.2,-,N/A,,Clear,330,2013-03-27 11:50:00
8:50 AM,26.6,21.2,80,30.19,10.0,NNW,11.5,-,N/A,,Clear,330,2013-03-27 12:50:00
9:50 AM,32.0,21.2,64,30.18,10.0,NNW,16.1,19.6,N/A,,Clear,340,2013-03-27 13:50:00
10:50 AM,33.8,19.4,56,30.19,10.0,NNW,16.1,19.6,N/A,,Clear,340,2013-03-27 14:50:00
11:50 AM,35.6,19.4,52,30.19,10.0,NNE,18.4,25.3,N/A,,Clear,20,2013-03-27 15:50:00
12:50 PM,35.6,17.6,48,30.20,10.0,NNE,20.7,-,N/A,,Clear,20,2013-03-27 16:50:00
1:55 PM,35.6,19.4,52,30.20,10.0,North,15.0,20.7,N/A,,Clear,10,2013-03-27 17:55:00
2:50 PM,37.4,19.4,48,30.20,10.0,North,13.8,-,N/A,,Clear,10,2013-03-27 18:50:00
3:50 PM,39.2,19.4,45,30.19,10.0,NNW,12.7,17.3,N/A,,Clear,340,2013-03-27 19:50:00
4:50 PM,37.4,21.2,52,30.19,10.0,NNE,5.8,-,N/A,,Clear,30,2013-03-27 20:50:00
5:50 PM,39.2,17.6,42,30.20,10.0,NNW,11.5,17.3,N/A,,Clear,340,2013-03-27 21:50:00
6:50 PM,37.4,15.8,41,30.21,10.0,NNW,12.7,18.4,N/A,,Clear,330,2013-03-27 22:50:00
7:50 PM,35.6,17.6,48,30.21,10.0,NNW,9.2,-,N/A,,Clear,340,2013-03-27 23:50:00
8:50 PM,33.8,17.6,52,30.22,10.0,NNW,6.9,-,N/A,,Clear,330,2013-03-28 00:50:00
9:46 PM,30.2,17.6,60,30.22,10.0,NW,4.6,-,N/A,,Clear,320,2013-03-28 01:46:00
10:17 PM,30.7,18.0,59,30.22,10.0,NW,4.6,-,N/A,,Clear,320,2013-03-28 02:17:00
10:36 PM,30.2,18.0,60,30.22,10.0,NW,4.6,-,N/A,,Clear,310,2013-03-28 02:36:00
10:57 PM,29.5,18.1,63,30.22,10.0,Calm,Calm,-,N/A,,Clear,0,2013-03-28 02:57:00
11:17 PM,28.2,17.8,65,30.22,10.0,Calm,Calm,-,N/A,,Clear,0,2013-03-28 03:17:00
11:36 PM,28.8,17.8,64,30.22,10.0,NW,3.5,-,N/A,,Clear,320,2013-03-28 03:36:00
11:57 PM,28.4,17.4,63,30.22,10.0,WNW,5.8,-,N/A,,Clear,300,2013-03-28 03:57:00